TRANSIT 10 DEB, 24705

Orbit data source: Space-Track

TRANSIT 10 DEB, 24705 is space debris in LEO originally from a launch on Wed, 22 Dec 1965 UTC launched from the Air Force Western Test Range (AFWTR). Debris objects in space refer to the collection of defunct objects orbiting the Earth. Examples of debris include non-operational satellites, rocket bodies, and fragments generated from explosions, collisions, or faulty payload assembly.

Loading next visibility...
Identifier
24705, 1965-109E
Orbit
LEO
Country
Flag of USUS
Related business
Manufacturer
Unknown
Mission
Spacecraft
Bus & Motor
Unknown
Mass
Unknown
Launch date (UTC)
1965-12-22 (60 years ago)
Launch vehicle
Unknown
Launch site
Air Force Western Test Range (AFWTR)
Object type
Payload
Rocket body
Debris
Shape & HBR
Unknown shape, 0.2 m
Radar Cross Section
Medium (>0.1 m² and <1 m²)

Expand to show TLE details & history
Last TLE update: 6 hours ago

TLE from 6 hours ago
0 TRANSIT 10 DEB
1 24705U 65109E   26035.77474340  .00004204  00000-0  22152-2 0  9995
2 24705  89.0667 212.2286 0079590 133.9343 242.4594 14.12185427482150
Epoch: 2026-02-04T18:35Z
TLE epoch observation values (Epoch: 2026-02-04T18:35:37.829Z)
Latitude
15.56279°
Longitude
158.64307°
Altitude
881.232 km
Speed
7.399 km/s
True Right ascension
14h 09m 56s
True Declination
15° 28' 32"
Sunlit
Object was in daylight at epoch
Visualization orbit readout
Latitude
Unknown
Longitude
Unknown
Altitude
Unknown
Speed
Unknown
Apparent Right ascension
Unknown
Apparent Declination
Unknown
Sunlit
N/A
Visualization observer readout
Local Sidereal Time
03:02:34
Azimuth
Unknown
Elevation
Unknown
Doppler factor
Unknown
Orbital elements
Apogee altitude
906.384 km
Perigee altitude
791.345 km
Semi-major axis
7,227.002 km
Eccentricity
0.00796
Inclination
89.0667°
RAAN
212.2286°
Arg. of periapsis
133.9343°
True anomaly
241.65444°
Mean anomaly
242.4594°
Eccentric anomaly
242.05655°
Mean motion
3.53269 °/min
Orbital period
101.91 mins
BSTAR
0.0022152
Loading maneuver chart data...
Computing Atmospheric mass density...
Loading historical data...
Loading historical data...
Loading historical data...
Loading historical data...
Loading historical data...
Loading historical data...
Loading historical data...

Documentation

Showing up to 5 results
|